Weather History for KGDP - October, 2013

Change the Weather History Date:

Thursday, October 31, 2013

  Actual Average Record
Temperature  
Mean Temperature 54 °F -  
Max Temperature 61 °F 61 °F 79 °F (2001)
Min Temperature 46 °F 44 °F 39 °F (2002)
Degree Days  
Heating Degree Days 12    
Growing Degree Days 4 (Base 50)    
Moisture  
Dew Point 21 °F    
Average Humidity 30    
Maximum Humidity 46    
Minimum Humidity 20    
Precipitation  
Precipitation 0.00 in - - ()
Sea Level Pressure  
Sea Level Pressure 29.90 in    
Wind  
Wind Speed 34 mph (WSW)    
Max Wind Speed 45 mph    
Max Gust Speed 58 mph    
Visibility 9 miles    
Events      
Averages and records for this station are not official NWS values.
T = Trace of Precipitation, MM = Missing Value Source: NWS Daily Summary

Daily Weather History Graph

Daily Weather History Graph

Search for Another Location

Airport or City:

Trip Planner

Search our weather history database for the weather conditions in past years. The results will help you decide how hot, cold, wet, or windy it might be!

Date:

Astronomy

Oct. 31, 2013 Rise Set
Actual Time 7:15 AM MDT 6:10 PM MDT
Civil Twilight 6:49 AM MDT 6:35 PM MDT
Nautical Twilight 6:21 AM MDT 7:04 PM MDT
Astronomical Twilight 5:52 AM MDT 7:32 PM MDT
Moon 4:17 AM MDT (10/31) 4:21 PM MDT (10/31)
Length of Visible Light 11h 45m
Length of Day
10h 55m
Waning Crescent, 9% of the Moon is Illuminated
Oct 31
Waning Crescent
Nov 3
New
Nov 9
First Quarter
Nov 17
Full
Nov 25
Last Quarter

Hourly Weather History & Observations

Time (MDT) Temp. Windchill Dew Point Humidity Pressure Visibility Wind Dir Wind Speed Gust Speed Precip Events Conditions
12:51 AM 51.1 °F - 30.9 °F 46% 29.81 in 10.0 mi WSW 36.8 mph 44.9 mph N/A   Clear
1:51 AM 48.9 °F - 28.9 °F 46% 29.81 in 10.0 mi WSW 33.4 mph 43.7 mph N/A   Clear
2:51 AM 48.9 °F - 23.0 °F 36% 29.82 in 10.0 mi WSW 34.5 mph 47.2 mph N/A   Clear
3:51 AM 48.9 °F - 19.9 °F 32% 29.84 in 10.0 mi WSW 36.8 mph 44.9 mph N/A   Clear
4:51 AM 48.9 °F - 19.9 °F 32% 29.87 in 10.0 mi West 41.4 mph 51.8 mph N/A   Clear
5:51 AM 48.0 °F - 19.9 °F 33% 29.87 in 10.0 mi WSW 44.9 mph 57.5 mph N/A   Clear
6:51 AM 46.0 °F 35.6 °F 21.9 °F 39% 29.91 in 10.0 mi WSW 38.0 mph 52.9 mph N/A   Clear
7:51 AM 46.9 °F - 21.9 °F 37% 29.93 in 9.0 mi WSW 41.4 mph 47.2 mph N/A   Clear
8:51 AM 50.0 °F - 21.0 °F 32% 29.95 in 9.0 mi WSW 31.1 mph 42.6 mph N/A   Clear
9:51 AM 52.0 °F - 21.9 °F 31% 29.96 in 9.0 mi WSW 28.8 mph 42.6 mph N/A   Clear
10:51 AM 55.0 °F - 21.9 °F 28% 29.99 in 9.0 mi WSW 26.5 mph 35.7 mph N/A   Clear
11:51 AM 55.9 °F - 24.1 °F 29% 29.98 in 9.0 mi WSW 29.9 mph 40.3 mph N/A   Clear
12:51 PM 59.0 °F - 24.1 °F 26% 29.94 in 9.0 mi WSW 29.9 mph 38.0 mph N/A   Clear
1:51 PM 60.1 °F - 21.9 °F 23% 29.91 in 9.0 mi WSW 27.6 mph 39.1 mph N/A   Clear
2:51 PM 60.1 °F - 21.9 °F 23% 29.88 in 8.0 mi WSW 28.8 mph 42.6 mph N/A   Clear
3:51 PM 61.0 °F - 19.9 °F 21% 29.87 in 8.0 mi WSW 34.5 mph 44.9 mph N/A   Clear
4:51 PM 59.0 °F - 18.0 °F 20% 29.87 in 8.0 mi WSW 32.2 mph 46.0 mph N/A   Clear
5:51 PM 57.0 °F - 19.9 °F 24% 29.87 in 8.0 mi WSW 28.8 mph 40.3 mph N/A   Clear
6:51 PM 54.0 °F - 16.0 °F 22% 29.90 in 10.0 mi WSW 28.8 mph 44.9 mph N/A   Clear
7:51 PM 53.1 °F - 18.0 °F 25% 29.91 in 10.0 mi WSW 31.1 mph 35.7 mph N/A   Clear
8:51 PM 53.1 °F - 14.0 °F 21% 29.91 in 10.0 mi WSW 24.2 mph 34.5 mph N/A   Clear
9:51 PM 48.0 °F - 18.0 °F 30% 29.93 in 10.0 mi WSW 23.0 mph - N/A   Clear
10:51 PM 48.0 °F - 17.1 °F 29% 29.92 in 10.0 mi WSW 20.7 mph - N/A   Clear
11:51 PM 48.9 °F - 12.9 °F 24% 29.91 in 10.0 mi WSW 28.8 mph - N/A   Clear